Marfa, TX

9:14 AM CST on February 21, 2017 (GMT -0600)
Marfa Municipal

Weather History for KMRF - November, 2013

Change the Weather History Date:

Monday, November 25, 2013

  Actual Average Record
Temperature  
Mean Temperature 37 °F -  
Max Temperature 41 °F 59 °F 78 °F (1997)
Min Temperature 33 °F 30 °F 15 °F (1996)
Degree Days  
Heating Degree Days 28    
Moisture  
Dew Point 29 °F    
Average Humidity 74    
Maximum Humidity 87    
Minimum Humidity 65    
Precipitation  
Precipitation 0.00 in - - ()
Sea Level Pressure  
Sea Level Pressure 30.18 in    
Wind  
Wind Speed 13 mph (NW)    
Max Wind Speed 20 mph    
Max Gust Speed 24 mph    
Visibility 10 miles    
Events      
Averages and records for this station are not official NWS values.
T = Trace of Precipitation, MM = Missing Value Source: NWS Daily Summary

Daily Weather History Graph

Daily Weather History Graph

Search for Another Location

Airport or City:

Trip Planner

Search our weather history database for the weather conditions in past years. The results will help you decide how hot, cold, wet, or windy it might be!

Date:

Astronomy

Nov. 25, 2013 Rise Set
Actual Time 7:30 AM CST 5:55 PM CST
Civil Twilight 7:04 AM CST 6:21 PM CST
Nautical Twilight 6:35 AM CST 6:51 PM CST
Astronomical Twilight 6:06 AM CST 7:19 PM CST
Moon 12:10 AM CST (11/25) 1:04 PM CST (11/25)
Length of Visible Light 11h 17m
Length of Day
10h 25m
Waning Gibbous, 51% of the Moon is Illuminated
Nov 25
Waning Gibbous
Nov 25
Last Quarter
Dec 2
New
Dec 9
First Quarter
Dec 17
Full

Hourly Weather History & Observations

Time (CST) Temp. Windchill Dew Point Humidity Pressure Visibility Wind Dir Wind Speed Gust Speed Precip Events Conditions
4:15 PM 41.0 °F 31.9 °F - N/A% 30.08 in - West 19.6 mph - N/A   Unknown
4:35 PM 39.2 °F 30.2 °F 28.4 °F 65% 30.10 in 10.0 mi West 17.3 mph - N/A   Clear
4:55 PM 39.2 °F 30.2 °F 30.2 °F 70% 30.12 in 10.0 mi WNW 17.3 mph 20.7 mph N/A   Clear
5:15 PM 39.2 °F 30.8 °F 30.2 °F 70% 30.12 in 10.0 mi WNW 15.0 mph - N/A   Clear
5:35 PM 39.2 °F 30.8 °F 30.2 °F 70% 30.14 in 10.0 mi WNW 15.0 mph - N/A   Mostly Cloudy
5:55 PM 37.4 °F 29.3 °F 30.2 °F 75% 30.14 in 10.0 mi WNW 12.7 mph - N/A   Overcast
6:15 PM 35.6 °F 28.6 °F 32.0 °F 87% 30.16 in 10.0 mi WNW 9.2 mph - N/A   Mostly Cloudy
6:35 PM 35.6 °F 30.7 °F 30.2 °F 81% 30.16 in 10.0 mi WNW 5.8 mph - N/A   Mostly Cloudy
6:55 PM 35.6 °F 30.7 °F 30.2 °F 81% 30.16 in 10.0 mi NNW 5.8 mph - N/A   Overcast
7:15 PM 37.4 °F 31.4 °F 30.2 °F 75% 30.17 in 10.0 mi NW 8.1 mph - N/A   Overcast
7:35 PM 37.4 °F 34.9 °F 30.2 °F 75% 30.17 in 10.0 mi NW 3.5 mph - N/A   Overcast
7:55 PM 37.4 °F 33.8 °F 30.2 °F 75% 30.18 in 10.0 mi WNW 4.6 mph - N/A   Overcast
8:15 PM 35.6 °F 29.2 °F 30.2 °F 81% 30.18 in 10.0 mi WNW 8.1 mph - N/A   Mostly Cloudy
8:35 PM 33.8 °F 25.3 °F 30.2 °F 87% 30.19 in 10.0 mi WNW 11.5 mph - N/A   Mostly Cloudy
8:55 PM 33.8 °F 25.8 °F 30.2 °F 87% 30.20 in 10.0 mi WNW 10.4 mph - N/A   Mostly Cloudy
9:15 PM 33.8 °F 26.4 °F 30.2 °F 87% 30.20 in 10.0 mi NW 9.2 mph - N/A   Partly Cloudy
9:35 PM 35.6 °F 28.0 °F 28.4 °F 75% 30.21 in 10.0 mi NW 10.4 mph - N/A   Mostly Cloudy
9:55 PM 37.4 °F 29.3 °F 26.6 °F 65% 30.21 in 10.0 mi NNW 12.7 mph - N/A   Overcast
10:15 PM 37.4 °F 30.8 °F 26.6 °F 65% 30.22 in 10.0 mi NNW 9.2 mph - N/A   Overcast
10:35 PM 37.4 °F 30.8 °F 28.4 °F 70% 30.21 in 10.0 mi NW 9.2 mph - N/A   Overcast
10:55 PM 37.4 °F 28.9 °F 26.6 °F 65% 30.22 in 10.0 mi NNW 13.8 mph 17.3 mph N/A   Overcast
11:15 PM 37.4 °F 29.3 °F 26.6 °F 65% 30.22 in 10.0 mi NW 12.7 mph - N/A   Overcast
11:35 PM 37.4 °F 29.3 °F 26.6 °F 65% 30.23 in 10.0 mi NNW 12.7 mph - N/A   Overcast
11:55 PM 37.4 °F 28.2 °F 26.6 °F 65% 30.24 in 10.0 mi NNW 16.1 mph 24.2 mph N/A   Overcast